Tiempo cada hora Bar-le-Duc

Hoy, 15 Mayo, Sábado

Tiempo Temperatura Precipitaciones Viento Presión Humedad
00:00 +5°C° 0 mm 4 mps 736 mmHg 98%
01:00 +5°C° 0 mm 4 mps 736 mmHg 98%
02:00 +4°C° 0 mm 4 mps 736 mmHg 98%
03:00 +4°C° 0 mm 3 mps 735 mmHg 98%
04:00 +5°C° 0.1 mm 4 mps 735 mmHg 97%
05:00 +6°C° 0.1 mm 4 mps 735 mmHg 96%
06:00 +7°C° 0.1 mm 4 mps 735 mmHg 95%
07:00 +7°C° 0.3 mm 5 mps 735 mmHg 93%
08:00 +7°C° 0.3 mm 5 mps 735 mmHg 91%
09:00 +8°C° 0.3 mm 5 mps 734 mmHg 89%
10:00 +8°C° 0.2 mm 6 mps 734 mmHg 90%
11:00 +8°C° 0.2 mm 6 mps 734 mmHg 92%
12:00 +8°C° 0.2 mm 6 mps 734 mmHg 93%
13:00 +9°C° 0.5 mm 6 mps 733 mmHg 91%
14:00 +10°C° 0.5 mm 7 mps 733 mmHg 89%
15:00 +11°C° 0.5 mm 7 mps 733 mmHg 87%
16:00 +11°C° 0.6 mm 6 mps 733 mmHg 88%
17:00 +10°C° 0.6 mm 6 mps 733 mmHg 89%
18:00 +10°C° 0.6 mm 5 mps 733 mmHg 90%
19:00 +9°C° 0.5 mm 5 mps 733 mmHg 92%
20:00 +9°C° 0.5 mm 6 mps 733 mmHg 93%
21:00 +8°C° 0.5 mm 6 mps 734 mmHg 95%
22:00 +8°C° 0.4 mm 6 mps 734 mmHg 96%
23:00 +8°C° 0.4 mm 6 mps 734 mmHg 96%

Mañana, 16 Mayo, Domingo

Tiempo Temperatura Precipitaciones Viento Presión Humedad
00:00 +7°C° 0.4 mm 6 mps 734 mmHg 97%
01:00 +7°C° 0.3 mm 5 mps 734 mmHg 97%
02:00 +7°C° 0.3 mm 5 mps 734 mmHg 97%
03:00 +7°C° 0.3 mm 5 mps 734 mmHg 98%
04:00 +7°C° 0.7 mm 5 mps 733 mmHg 98%
05:00 +7°C° 0.7 mm 5 mps 733 mmHg 97%
06:00 +7°C° 0.7 mm 5 mps 733 mmHg 97%
07:00 +8°C° 0.3 mm 5 mps 733 mmHg 95%
08:00 +9°C° 0.3 mm 5 mps 733 mmHg 92%
09:00 +10°C° 0.3 mm 5 mps 733 mmHg 89%
10:00 +10°C° 1 mm 5 mps 733 mmHg 90%
11:00 +9°C° 1 mm 5 mps 733 mmHg 92%
12:00 +10°C° 1 mm 4 mps 733 mmHg 93%
13:00 +9°C° 0.5 mm 5 mps 733 mmHg 92%
14:00 +10°C° 0.5 mm 5 mps 732 mmHg 91%
15:00 +12°C° 0.5 mm 5 mps 732 mmHg 90%
16:00 +10°C° 0.5 mm 5 mps 732 mmHg 90%
17:00 +10°C° 0.5 mm 6 mps 732 mmHg 90%
18:00 +10°C° 0.5 mm 6 mps 732 mmHg 89%
19:00 +9°C° 0.3 mm 6 mps 733 mmHg 91%
20:00 +9°C° 0.3 mm 6 mps 733 mmHg 92%
21:00 +8°C° 0.3 mm 6 mps 733 mmHg 94%
22:00 +8°C° 0.1 mm 7 mps 733 mmHg 94%
23:00 +7°C° 0.1 mm 8 mps 733 mmHg 94%

Pasado mañana, 17 Mayo, Lunes

Tiempo Temperatura Precipitaciones Viento Presión Humedad
00:00 +7°C° 0.1 mm 8 mps 734 mmHg 93%
01:00 +7°C° 0.2 mm 8 mps 734 mmHg 94%
02:00 +6°C° 0.2 mm 7 mps 734 mmHg 95%
03:00 +6°C° 0.2 mm 7 mps 734 mmHg 95%
04:00 +6°C° 0.3 mm 7 mps 734 mmHg 95%
05:00 +6°C° 0.3 mm 8 mps 735 mmHg 95%
06:00 +6°C° 0.3 mm 8 mps 735 mmHg 95%
07:00 +6°C° 0.3 mm 8 mps 735 mmHg 95%
08:00 +6°C° 0.3 mm 8 mps 735 mmHg 94%
09:00 +7°C° 0.3 mm 8 mps 736 mmHg 94%
10:00 +8°C° 0.4 mm 7 mps 736 mmHg 92%
11:00 +9°C° 0.4 mm 7 mps 736 mmHg 90%
12:00 +10°C° 0.4 mm 7 mps 736 mmHg 89%
13:00 +10°C° 0.6 mm 7 mps 736 mmHg 89%
14:00 +11°C° 0.6 mm 7 mps 736 mmHg 89%
15:00 +11°C° 0.6 mm 7 mps 736 mmHg 90%
16:00 +11°C° 0.6 mm 7 mps 736 mmHg 90%
17:00 +10°C° 0.6 mm 6 mps 736 mmHg 91%
18:00 +10°C° 0.6 mm 6 mps 736 mmHg 92%
19:00 +9°C° 0.6 mm 5 mps 737 mmHg 93%
20:00 +8°C° 0.6 mm 5 mps 737 mmHg 94%
21:00 +8°C° 0.6 mm 4 mps 737 mmHg 96%
22:00 +7°C° 0.9 mm 5 mps 737 mmHg 96%
23:00 +7°C° 0.9 mm 6 mps 738 mmHg 96%

18 Mayo, Martes

Tiempo Temperatura Precipitaciones Viento Presión Humedad
00:00 +7°C° 0.9 mm 6 mps 738 mmHg 96%
01:00 +7°C° 0.2 mm 6 mps 738 mmHg 96%
02:00 +6°C° 0.2 mm 7 mps 738 mmHg 96%
03:00 +6°C° 0.2 mm 7 mps 738 mmHg 97%
04:00 +6°C° 0.1 mm 7 mps 739 mmHg 97%
05:00 +6°C° 0.1 mm 7 mps 739 mmHg 97%
06:00 +5°C° 0.1 mm 6 mps 740 mmHg 97%
07:00 +7°C° 0.4 mm 6 mps 740 mmHg 97%
08:00 +7°C° 0.4 mm 6 mps 741 mmHg 97%
09:00 +7°C° 0.4 mm 6 mps 741 mmHg 97%
10:00 +8°C° 0.5 mm 6 mps 741 mmHg 95%
11:00 +8°C° 0.5 mm 6 mps 742 mmHg 93%
12:00 +9°C° 0.5 mm 6 mps 742 mmHg 91%
13:00 +9°C° 0.4 mm 6 mps 742 mmHg 91%
14:00 +9°C° 0.4 mm 6 mps 742 mmHg 90%
15:00 +9°C° 0.4 mm 6 mps 743 mmHg 90%
16:00 +9°C° 0.7 mm 5 mps 743 mmHg 90%
17:00 +10°C° 0.7 mm 4 mps 743 mmHg 90%
18:00 +10°C° 0.7 mm 4 mps 743 mmHg 90%
19:00 +9°C° 0.2 mm 3 mps 743 mmHg 92%
20:00 +8°C° 0.2 mm 3 mps 744 mmHg 94%
21:00 +7°C° 0.2 mm 3 mps 744 mmHg 96%
22:00 +5°C° 0 mm 3 mps 744 mmHg 96%
23:00 +5°C° 0 mm 3 mps 744 mmHg 96%

19 Mayo, Miércoles

Tiempo Temperatura Precipitaciones Viento Presión Humedad
00:00 +5°C° 0 mm 3 mps 744 mmHg 96%
01:00 +5°C° 0.1 mm 3 mps 744 mmHg 97%
02:00 +7°C° 0.1 mm 3 mps 744 mmHg 97%
03:00 +6°C° 0.1 mm 4 mps 744 mmHg 97%
04:00 +6°C° 0.8 mm 4 mps 744 mmHg 97%
05:00 +6°C° 0.8 mm 4 mps 744 mmHg 97%
06:00 +7°C° 0.8 mm 4 mps 744 mmHg 97%
07:00 +7°C° 0.5 mm 4 mps 744 mmHg 95%
08:00 +8°C° 0.5 mm 5 mps 745 mmHg 94%
09:00 +9°C° 0.5 mm 5 mps 745 mmHg 92%
10:00 +9°C° 0.5 mm 5 mps 745 mmHg 92%
11:00 +9°C° 0.5 mm 5 mps 745 mmHg 91%
12:00 +9°C° 0.5 mm 5 mps 745 mmHg 91%
13:00 +10°C° 0.4 mm 5 mps 745 mmHg 88%
14:00 +10°C° 0.4 mm 5 mps 745 mmHg 84%
15:00 +12°C° 0.4 mm 5 mps 745 mmHg 81%
16:00 +12°C° 0.4 mm 5 mps 745 mmHg 83%
17:00 +11°C° 0.4 mm 4 mps 745 mmHg 84%
18:00 +11°C° 0.4 mm 3 mps 745 mmHg 86%
19:00 +9°C° 0 mm 2 mps 745 mmHg 87%
20:00 +8°C° 0 mm 2 mps 745 mmHg 87%
21:00 +8°C° 0 mm 1 mps 745 mmHg 88%
22:00 +7°C° 0 mm 1 mps 745 mmHg 89%
23:00 +6°C° 0 mm 2 mps 745 mmHg 90%

20 Mayo, Jueves

Tiempo Temperatura Precipitaciones Viento Presión Humedad
00:00 +6°C° 0 mm 2 mps 745 mmHg 91%
01:00 +6°C° 0 mm 2 mps 745 mmHg 92%
02:00 +6°C° 0 mm 2 mps 744 mmHg 92%
03:00 +6°C° 0 mm 2 mps 744 mmHg 93%
04:00 +6°C° 0 mm 2 mps 744 mmHg 93%
05:00 +7°C° 0 mm 3 mps 744 mmHg 93%
06:00 +8°C° 0 mm 3 mps 743 mmHg 93%
07:00 +8°C° 0.6 mm 3 mps 743 mmHg 94%
08:00 +8°C° 0.6 mm 3 mps 743 mmHg 95%
09:00 +9°C° 0.6 mm 3 mps 743 mmHg 96%
10:00 +10°C° 0.5 mm 4 mps 742 mmHg 94%
11:00 +10°C° 0.5 mm 6 mps 742 mmHg 92%
12:00 +11°C° 0.5 mm 7 mps 741 mmHg 90%
13:00 +10°C° 0.1 mm 7 mps 741 mmHg 90%
14:00 +10°C° 0.1 mm 8 mps 740 mmHg 89%
15:00 +10°C° 0.1 mm 8 mps 740 mmHg 88%
16:00 +10°C° 0.3 mm 8 mps 740 mmHg 89%
17:00 +10°C° 0.3 mm 9 mps 739 mmHg 89%
18:00 +11°C° 0.3 mm 9 mps 739 mmHg 89%
19:00 +10°C° 0.1 mm 8 mps 739 mmHg 89%
20:00 +9°C° 0.1 mm 8 mps 740 mmHg 89%
21:00 +7°C° 0.1 mm 8 mps 740 mmHg 89%
22:00 +7°C° 0 mm 8 mps 740 mmHg 89%
23:00 +7°C° 0 mm 8 mps 740 mmHg 88%
Mostrar más

Necesitamos Su Consentimiento

Meteoprog y nuestros Proveedores de Servicios pueden almacenar y acceder a sus datos personales como cookies, identificadores de dispositivo u otras tecnologías similares de su dispositivo y procesar dichos datos para personalizar contenido y anuncios, además de ofrecer funciones de redes sociales y analizar el tráfico.

  • Almacenar y/o acceder a información en su dispositivo

    Se puede almacenar o acceder a cookies, identificadores de dispositivo u otra información de su dispositivo para los fines anteriormente indicados.

  • Anuncios y contenido personalizados, medición de anuncios y contenido, percepciones del público, y desarrollo de productos

    Los anuncios y el contenido pueden personalizarse en base a su perfil. Se pueden añadir más datos para personalizar mejor los anuncios y contenidos. Se puede medir el rendimiento de los anuncios y contenidos. Se puede obtener la percepción sobre el público que ha visto los anuncios y contenidos. Dichos datos pueden usarse para desarrollar o mejorar la experiencia del usuario, sistemas y software.

Al hacer clic en ‘Estoy De Acuerdo’ usted permitirá el uso de las cookies, identificadores de dispositivo, balizas web u otras tecnologías similares indicadas. Su configuración puede cambiarse desde el navegador de su dispositivo.

Para ciertos fines, los intereses legítimos pueden ser considerados por encima del consentimiento. Puede leer más sobre ello en nuestra Política de Privacidad y Cookies.